Theta_e
328 326 324 323 324 319 318 320 321 320 320 321 322 321 321 320 320 320 318 317 315 314
330 328 326 326 325 322 324 323 322 321 321 322 322 326 324 320 322 317 317 316 315 313
331 330 328 326 324 324 325 325 324 323 323 323 328 327 324 320 316 314 313 314 312 310
329 330 329 326 324 324 325 326 325 325 327 325 317 313 310 310 309 309 309 310 309 308
324 327 327 326 326 326 325 325 326 328 322 313 310 306 305 304 304 304 306 309 308 308
323 323 322 325 326 324 323 323 328 319 312 308 305 304 303 302 301 302 305 310 309 309
328 324 320 324 323 323 327 324 320 313 310 307 304 303 301 301 300 301 305 309 311 310
329 325 323 325 323 327 325 321 316 311 307 304 303 302 301 302 301 302 304 307 309 310
329 329 323 322 324 323 319 318 317 311 306 303 305 304 305 305 302 303 302 303 307 306
327 323 323 324 320 318 315 314 313 312 310 304 304 303 303 306 303 302 300 302 303 303
321 322 325 319 317 316 315 315 312 311 312 308 307 303 302 304 303 301 301 302 301 301
323 315 318 315 314 315 314 312 311 312 311 310 309 304 301 302 301 301 300 301 300 302
322 317 316 314 313 312 311 312 313 313 311 311 310 305 300 301 300 299 297 298 299 302
316 314 315 311 312 311 311 310 310 310 310 310 309 308 300 300 299 299 297 296 297 298
Wind_Speed
7 4 4 4 3 3 3 3 3 6 6 7 6 6 5 3 4 4 4 6 4 3
6 6 5 5 5 4 3 4 6 7 7 7 6 6 5 3 3 3 4 5 4 2
7 5 6 4 7 5 5 4 6 7 7 3 4 1 3 4 4 4 3 2 3 1
6 7 6 5 6 6 5 6 7 7 3 4 6 6 6 5 4 4 4 2 1 2
5 5 5 6 7 7 7 5 7 3 6 6 6 5 6 5 3 4 4 5 2 1
8 6 6 6 6 6 7 6 3 7 6 6 6 5 5 4 3 4 4 4 3 3
9 7 7 8 7 7 5 5 6 6 7 6 5 4 3 4 4 3 3 4 5 4
9 10 9 9 7 5 6 5 7 7 6 6 5 3 3 3 3 3 4 5 5 4
10 8 6 4 5 6 6 6 7 6 6 6 3 7 6 2 2 4 3 5 5 5
3 5 6 7 7 6 6 5 6 6 7 7 6 10 8 6 2 2 3 4 4 5
8 6 2 4 5 3 3 4 4 5 6 6 6 11 8 6 2 3 4 4 5 5
5 5 4 4 4 4 3 3 3 3 5 7 7 10 8 6 3 3 5 5 6 5
3 3 4 4 3 2 2 3 3 4 6 6 7 8 12 8 4 3 4 6 7 7
4 4 6 4 3 2 3 2 3 5 6 5 7 7 13 12 5 4 4 4 4 4
Wind_Direction
211 216 213 193 216 216 202 210 203 209 223 231 235 242 238 233 248 246 256 265 241 263
216 217 224 209 202 214 206 205 216 221 230 241 248 243 244 246 287 309 289 280 271 235
229 215 221 231 216 221 225 233 221 231 234 281 268 343 88 70 33 38 358 6 88 73
226 205 212 217 238 236 255 239 244 250 264 108 85 64 69 64 36 29 359 360 13 36
201 207 207 222 226 219 231 238 240 206 125 95 93 86 74 61 23 21 349 337 303 97
222 227 239 236 246 212 214 228 153 124 123 129 124 120 102 81 37 5 327 323 296 254
208 213 220 227 221 218 208 165 137 133 138 139 136 112 103 85 39 360 331 311 308 246
207 213 218 227 227 155 149 150 137 139 147 153 147 160 117 61 38 11 337 321 311 291
213 216 220 223 149 143 134 134 144 166 157 169 179 175 169 160 2 357 345 323 318 318
271 212 186 160 146 151 158 151 152 165 170 194 207 208 194 203 215 312 312 301 308 309
359 346 71 125 117 126 164 173 166 172 188 207 221 220 206 214 231 300 304 291 296 296
3 322 125 106 157 202 187 192 208 214 201 216 249 229 206 214 236 273 292 296 293 291
310 226 128 174 189 211 196 228 239 254 248 235 248 231 202 209 216 242 267 278 288 284
217 153 207 207 211 207 235 264 291 284 285 281 241 242 201 210 212 226 256 268 275 263